Location: B?jaj?g
(11.7167°N, 92.6667°E)
Time: 03:15:58
(UTC+00:00)

H-2A R/B - Pass Details

Date: 18 September 2020
Orbit: 734 x 836 km, 98.2° (Epoch: 18 October)

Event Time Altitude Azimuth Distance (km) Brightness Sun altitude
Exits shadow 12:26:19 11° 115° (ESE) 2,162 3.8 -10.2°
Maximum altitude 12:29:20 18° 74° (ENE) 1,740 3.3 -10.9°
Drops below altitude 10° 12:32:37 10° 32° (NNE) 2,241 4.1 -11.7°
Sets 12:35:34 0° 14° (NNE) 3,175 5.1 -12.5°
